TimeEEST,TemperatureF,Dew PointF,Humidity,Sea Level PressureIn,VisibilityMPH,Wind Direction,Wind SpeedMPH,Gust SpeedMPH,PrecipitationIn,Events,Conditions,WindDirDegrees,DateUTC
12:20 AM,60.8,46.4,59,30.09,6.2,NNW,5.8,-,N/A,,Mostly Cloudy,330,2011-10-23 21:20:00
12:50 AM,60.8,46.4,59,30.09,6.2,NNW,6.9,-,N/A,,Mostly Cloudy,330,2011-10-23 21:50:00
1:20 AM,60.8,46.4,59,30.09,6.2,NNW,8.1,-,N/A,,Mostly Cloudy,330,2011-10-23 22:20:00
1:50 AM,60.8,46.4,59,30.06,6.2,NNW,6.9,-,N/A,,Mostly Cloudy,330,2011-10-23 22:50:00
2:20 AM,60.8,46.4,59,30.06,6.2,NNW,8.1,-,N/A,,Mostly Cloudy,330,2011-10-23 23:20:00
2:50 AM,60.8,46.4,59,30.06,6.2,NNW,8.1,-,N/A,,Mostly Cloudy,330,2011-10-23 23:50:00
3:20 AM,60.8,46.4,59,30.06,6.2,NNW,9.2,-,N/A,,Mostly Cloudy,330,2011-10-24 00:20:00
3:50 AM,60.8,48.2,63,30.06,6.2,NNW,6.9,-,N/A,,Mostly Cloudy,330,2011-10-24 00:50:00
4:20 AM,60.8,46.4,59,30.06,6.2,North,4.6,-,N/A,,Mostly Cloudy,350,2011-10-24 01:20:00
4:50 AM,60.8,48.2,63,30.06,6.2,NW,5.8,-,N/A,,Mostly Cloudy,320,2011-10-24 01:50:00
5:20 AM,60.8,48.2,63,30.06,6.2,NNW,4.6,-,N/A,,Mostly Cloudy,330,2011-10-24 02:20:00
5:50 AM,60.8,48.2,63,30.06,6.2,NNW,5.8,-,N/A,,Mostly Cloudy,330,2011-10-24 02:50:00
6:20 AM,60.8,48.2,63,30.06,6.2,NW,6.9,-,N/A,,Mostly Cloudy,320,2011-10-24 03:20:00
6:50 AM,60.8,48.2,63,30.06,6.2,NW,4.6,-,N/A,,Mostly Cloudy,320,2011-10-24 03:50:00
7:20 AM,59.0,48.2,67,30.06,6.2,NNW,4.6,-,N/A,,Mostly Cloudy,330,2011-10-24 04:20:00
7:50 AM,59.0,46.4,63,30.06,6.2,NNW,4.6,-,N/A,,Mostly Cloudy,330,2011-10-24 04:50:00
8:20 AM,59.0,46.4,63,30.06,6.2,Variable,3.5,-,N/A,,Scattered Clouds,0,2011-10-24 05:20:00
8:50 AM,60.8,46.4,59,30.06,6.2,NNW,5.8,-,N/A,,Partly Cloudy,340,2011-10-24 05:50:00
9:20 AM,62.6,46.4,55,30.06,6.2,NNW,5.8,-,N/A,,Partly Cloudy,330,2011-10-24 06:20:00
9:50 AM,62.6,46.4,55,30.06,6.2,NNW,8.1,-,N/A,,Partly Cloudy,340,2011-10-24 06:50:00
10:20 AM,64.4,46.4,52,30.06,6.2,NNW,5.8,-,N/A,,Partly Cloudy,340,2011-10-24 07:20:00
10:50 AM,66.2,46.4,49,30.06,6.2,North,6.9,-,N/A,,Partly Cloudy,350,2011-10-24 07:50:00
11:20 AM,66.2,46.4,49,30.06,6.2,North,9.2,-,N/A,,Partly Cloudy,350,2011-10-24 08:20:00
11:50 AM,66.2,46.4,49,30.06,6.2,NNW,12.7,-,N/A,,Partly Cloudy,340,2011-10-24 08:50:00
12:20 PM,68.0,46.4,46,30.06,6.2,NNW,11.5,-,N/A,,Partly Cloudy,340,2011-10-24 09:20:00
12:50 PM,68.0,48.2,49,30.06,6.2,NNW,12.7,-,N/A,,Partly Cloudy,340,2011-10-24 09:50:00
1:20 PM,68.0,48.2,49,30.06,6.2,NNW,13.8,-,N/A,,Scattered Clouds,330,2011-10-24 10:20:00
1:50 PM,66.2,48.2,52,30.06,6.2,NNW,11.5,-,N/A,,Scattered Clouds,340,2011-10-24 10:50:00
2:20 PM,66.2,48.2,52,30.06,6.2,NNW,11.5,-,N/A,,Scattered Clouds,330,2011-10-24 11:20:00
2:50 PM,68.0,46.4,46,30.06,6.2,NNW,12.7,-,N/A,,Scattered Clouds,330,2011-10-24 11:50:00
3:20 PM,68.0,50.0,52,30.06,6.2,NNW,12.7,-,N/A,,Scattered Clouds,330,2011-10-24 12:20:00
3:50 PM,66.2,48.2,52,30.06,6.2,NW,12.7,-,N/A,,Scattered Clouds,320,2011-10-24 12:50:00
4:20 PM,64.4,50.0,59,30.06,6.2,NNW,11.5,-,N/A,,Scattered Clouds,330,2011-10-24 13:20:00
4:50 PM,64.4,50.0,59,30.06,6.2,NNW,12.7,-,N/A,,Scattered Clouds,330,2011-10-24 13:50:00
5:20 PM,64.4,50.0,59,30.06,6.2,NW,11.5,-,N/A,,Scattered Clouds,320,2011-10-24 14:20:00
5:50 PM,64.4,48.2,56,30.06,6.2,NW,11.5,-,N/A,,Mostly Cloudy,320,2011-10-24 14:50:00
6:20 PM,62.6,48.2,59,30.06,6.2,NW,11.5,-,N/A,,Mostly Cloudy,320,2011-10-24 15:20:00
6:50 PM,62.6,48.2,59,30.06,6.2,NW,11.5,-,N/A,,Mostly Cloudy,320,2011-10-24 15:50:00
7:20 PM,62.6,48.2,59,30.06,6.2,NW,13.8,-,N/A,,Mostly Cloudy,320,2011-10-24 16:20:00
7:50 PM,62.6,48.2,59,30.09,6.2,NW,11.5,-,N/A,,Mostly Cloudy,320,2011-10-24 16:50:00
8:20 PM,62.6,48.2,59,30.09,6.2,NW,9.2,-,N/A,,Mostly Cloudy,320,2011-10-24 17:20:00
8:50 PM,62.6,48.2,59,30.09,6.2,NW,9.2,-,N/A,,Mostly Cloudy,320,2011-10-24 17:50:00
9:20 PM,60.8,48.2,63,30.09,6.2,NW,10.4,-,N/A,,Scattered Clouds,320,2011-10-24 18:20:00
9:50 PM,60.8,48.2,63,30.09,6.2,NNW,10.4,-,N/A,,Scattered Clouds,330,2011-10-24 18:50:00
10:20 PM,60.8,48.2,63,30.09,6.2,NW,8.1,-,N/A,,Partly Cloudy,320,2011-10-24 19:20:00
10:50 PM,60.8,46.4,59,30.12,6.2,NNW,6.9,-,N/A,,Partly Cloudy,330,2011-10-24 19:50:00
11:20 PM,60.8,46.4,59,30.12,6.2,NNW,5.8,-,N/A,,Partly Cloudy,340,2011-10-24 20:20:00
11:50 PM,59.0,48.2,67,30.12,6.2,NW,8.1,-,N/A,,Partly Cloudy,320,2011-10-24 20:50:00